Regional Weather Roundup
Issued by NWS

Home | Current Version | Previous Version | Text Only | Print | Product List | Glossary Off
Versions: 1 2 3 4 5 6 7 8 9 10 11 12 13 14 15 16 17 18 19 20 21 22 23 24 25 26 27

073
ASUS45 KBOU 211407
RWRCO

WEATHER ROUNDUP FOR COLORADO
NATIONAL WEATHER SERVICE DENVER/BOULDER CO
800 AM MDT THU MAY 21 2015

NOTE: "FAIR" INDICATES FEW OR NO CLOUDS BELOW 12000 FEET WITH NO
SIGNIFICANT WEATHER AND/OR OBSTRUCTIONS TO VISIBILITY.

COZ001>005-013-030-031-211500-
...NORTHWEST COLORADO...

CITY           SKY/WX    TMP DP  RH WIND       PRES   REMARKS
CRAIG          SUNNY     44  38  79 CALM      30.16S
HAYDEN         SUNNY     39  34  81 SW5       30.16S
MEEKER         SUNNY     40  35  83 CALM      30.12F
MOUNT WERNER   NOT AVBL
STEAMBOAT SPGS SUNNY     39  35  88 CALM      30.16F
WALDEN         MOSUNNY   36  32  87 CALM      30.21F
$$

COZ006>008-011-211500-
...WEST CENTRAL VALLEYS...

CITY           SKY/WX    TMP DP  RH WIND       PRES   REMARKS
GRAND JUNCTION CLOUDY    54  40  59 SE8       30.04R
MONTROSE       CLOUDY    51  39  63 S3        30.10S
EAGLE          SUNNY     43  36  75 CALM      30.20F
RIFLE          MOSUNNY   46  37  71 CALM      30.10S
DELTA          CLOUDY    53  40  60 E3        30.08R
NUCLA          CLOUDY    50  39  66 CALM      30.12S
$$

COZ017>023-064>068-211500-
...SOUTHWEST COLORADO...

CITY           SKY/WX    TMP DP  RH WIND       PRES   REMARKS
DURANGO        CLOUDY    50  38  63 E5        30.18R
CORTEZ         PTSUNNY   54  44  69 NW5       30.10S
PAGOSA SPRINGS CLOUDY    49  35  56 NE3       30.23F
TELLURIDE      CLOUDY    48  26  41 CALM      30.24F
WOLF CREEK PAS NOT AVBL
$$

COZ009-010-012-014-032>034-037-058>063-211500-
...CENTRAL COLORADO...

CITY           SKY/WX    TMP DP  RH WIND       PRES   REMARKS
ASPEN          MOSUNNY   44  28  53 CALM      30.17F
BUENA VISTA    CLOUDY    40  36  83 CALM      30.28S
COPPER MTN     SUNNY     37  18  44 W7        30.36S
BERTHOUD PASS  FAIR      30  23  74 W17G24    30.38S WCI  18
COTTONWOOD PAS CLOUDY    36  32  87 CALM      30.31S
GUNNISON       CLOUDY    39  32  75 N5        30.24F
KREMMLING      SUNNY     36  32  87 CALM      30.24S
LEADVILLE      MOSUNNY   33  29  85 SW5       30.30S WCI  29
SALIDA         CLOUDY    43  39  86 CALM      30.34F
SUNLIGHT       CLOUDY    41  27  56 CALM        N/A
WILKERSON PASS FOG       30  30 100 SW8       30.37R VSB 1/4 WCI  23
$$

COZ069>075-211500-
...SAN LUIS VALLEY/SANGRE DE CRISTO MOUNTAINS...

CITY           SKY/WX    TMP DP  RH WIND       PRES   REMARKS
ALAMOSA        PTSUNNY   49  39  68 S16       30.23S
LA VETA PASS   FOG      N/A N/A N/A MISG      30.33R VSB<1/4
SAGUACHE       CLOUDY    43  36  75 CALM      30.27R
$$

COZ035-036-038>040-211500-
...NORTHERN COLORADO FRONT RANGE...

CITY           SKY/WX    TMP DP  RH WIND       PRES   REMARKS
DENVER INTL AP CLOUDY    44  41  89 S3        30.21S
DMNS CITY PARK   N/A     44  40  84 N1G8      30.21S
AURORA         CLOUDY    42  41  99 S3        30.23S
FRONT RANGE AP PTSUNNY   45  41  87 SE5       30.22F
ERIE MUNI ARPT CLOUDY    43  41  92 CALM      30.22S
BOULDER MUN AP CLOUDY    43  41  93 NE3       30.22R
CENTENNIAL     CLOUDY    42  38  85 CALM      30.22S
BROOMFIELD     CLOUDY    41  41 100 CALM      30.22S FOG
FORT COLLINS   CLOUDY    41  39  93 E7        30.24F
LONGMONT       CLOUDY    46  43  89 E3        30.24S
$$

COZ041-046-047-076>085-087-088-211500-
...PIKES PEAK/PALMER DIVIDE AND SOUTHERN FOOTHILLS...

CITY           SKY/WX    TMP DP  RH WIND       PRES   REMARKS
COLO. SPRINGS  DRZL/FOG  38  38 100 S12       30.28S VSB 1/2
A. F. ACADEMY  CLOUDY    38  38 100 SE13      30.25F
ELLICOTT       NOT AVBL
FALCON         FOG       37  37 100 S12       30.28S VSB 3/4
FORT CARSON    FOG       39 N/A N/A SE9       30.26F VSB 1/2
LIMON          CLOUDY    39  38  96 S18       30.27F FOG
MONUMENT HILL    N/A     37  36  93 MISG      30.22S
TRINIDAD       CLOUDY    46  43  89 N9        30.25S
$$

COZ042>045-048>051-090-091-211500-
...NORTHEAST COLORADO...

CITY           SKY/WX    TMP DP  RH WIND       PRES   REMARKS
GREELEY ARPT   CLOUDY    43  39  87 E9        30.24F
AKRON          CLOUDY    42  38  85 S13       30.27F
BURLINGTON     CLOUDY    44  36  73 S13       30.30S
WRAY           CLOUDY    47  38  71 S7        30.30S
STERLING       CLOUDY    45  37  76 S7        30.27R
HOLYOKE        NOT AVBL
FORT MORGAN    CLOUDY    44  38  80 SE12      30.26S
$$

COZ086-089-092>099-211500-
...SOUTHEAST COLORADO...

CITY           SKY/WX    TMP DP  RH WIND       PRES   REMARKS
PUEBLO         CLOUDY    42  42 100 E8        30.27F FOG
LA JUNTA       CLOUDY    44  41  89 SE16      30.28S
LAMAR          CLOUDY    46  39  76 S10       30.29S
SPRINGFIELD      N/A     41  39  93 SE10      30.30S
$$



USA.gov is the U.S. government's official web portal to all federal, state and local government web resources and services.